Location: Schommer Observatory
(40.5200°N, 74.4500°W)
Time: 22:18:50
(UTC-04:00)

N. Korean satellite - Pass Details

Date: 14 October 2017
Orbit: 459 x 517 km, 97.2° (Epoch: 23 October)

Event Time Altitude Azimuth Distance (km) Brightness Sun altitude
Rises 19:22:24 0° 181° (S) 2,550 10.3 -12.9°
Reaches altitude 10° 19:24:33 10° 189° (S) 1,664 9.4 -13.3°
Maximum altitude 19:27:58 42° 261° (W) 694 7.9 -13.9°
Drops below altitude 10° 19:31:21 10° 334° (NNW) 1,647 9.6 -14.6°
Sets 19:33:28 0° 341° (NNW) 2,521 10.5 -15.0°
